Skip Navigation Linkswww.weather.gov 
NOAA logo - Click to go to the NOAA homepage National Weather Service Forecast Office   NWS logo - Click to go to the NWS homepage    
Los Angeles, California
navigation bar decoration      
spacer
Printer Friendly  |   Go Back  |  Version: Current   1   2   3   4   5   6   7   8   9   10   |  Font:  A A A  |  
This version is NOT current and may no longer be valid!

HOURLY WEATHER ROUNDUP
 
 ASUS46 KSTO 011904
RWRCA

NORTHERN AND CENTRAL CA REGIONAL WEATHER ROUNDUP
NATIONAL WEATHER SERVICE SACRAMENTO CA
1100 AM PST SUN MAR 01 2015

NOTE: FAIR INDICATES FEW OR NO CLOUDS BELOW 12,000 FEET WITH NO
SIGNIFICANT WEATHER AND/OR OBSTRUCTIONS TO VISIBILITY.

CAZ001-003-012000-
NORTHWEST AREA

CITY SKY/WX TMP DP RH WIND PRES REMARKS
CRESCENT CITY SUNNY 58 31 35 NE10 30.07F
UKIAH SUNNY 53 37 54 CALM 30.00F
$$

CAZ006-505>513-012000-
BAY AREA

CITY SKY/WX TMP DP RH WIND PRES REMARKS
SANTA ROSA SUNNY 56 41 57 CALM 29.98F
SAN RAFAEL N/A 51 MM MM MISG
NAPA SUNNY 55 38 52 W3 30.00S
CONCORD SUNNY 58 35 42 VRB6 30.00F
OAKLAND CITY N/A 57 MM MM MISG
OAKLAND MOSUNNY 60 33 36 NE3 29.99F
SAN FRAN CITY N/A 57 MM 33 MISG
SAN FRAN ARPT MOSUNNY 57 40 52 CALM 30.00S
LIVERMORE SUNNY 57 36 45 SW3 29.98F
HAYWARD SUNNY 62 33 33 NE14G21 29.99S
REDWOOD CITY N/A MM MM MM MISG
MOFFETT ARPT SUNNY 58 36 43 VRB3 30.00F
SAN JOSE ARPT MOSUNNY 57 40 52 VRB3 29.99S
$$
CAZ034-037-514>518-012000-
CENTRAL COAST

CITY SKY/WX TMP DP RH WIND PRES REMARKS
WATSONVILLE SUNNY 59 48 67 CALM 29.99S
SALINAS SUNNY 60 45 57 E3 29.98S
MONTEREY SUNNY 61 42 49 N8 29.97F
SAN LUIS OBISP CLOUDY 57 44 62 VRB3 29.95F
SANTA MARIA PTSUNNY 61 43 51 N7 29.95S
$$
CAZ015-016-012000-
NORTHERN SACRAMENTO VALLEY

CITY SKY/WX TMP DP RH WIND PRES REMARKS
REDDING SUNNY 60 28 29 N17 30.03F
RED BLUFF SUNNY 60 28 29 N15G22 30.04F
OROVILLE N/A N/A N/A N/A MISG 30.00F
$$
CAZ016>018-012000-
SOUTHERN SACRAMENTO VALLEY

CITY SKY/WX TMP DP RH WIND PRES REMARKS
AUBURN SUNNY 54 43 66 SW3 29.98S
BEALE AFB SUNNY 56 41 58 VRB1 29.98F
LINCOLN FAIR 54 43 66 N3 29.99F
MARYSVILLE SUNNY 60 35 39 N7 30.00S
SAC INTL ARPT SUNNY 56 38 50 N8 29.99F
MATHER AIRPORT NOT AVBL
DOWNTOWN SAC N/A 55 MM MM MISG
SAC EXEC ARPT SUNNY 56 40 55 N6 30.00S
VACAVILLE SUNNY 62 33 33 N10G20 30.00F
TRAVIS AFB SUNNY 59 36 42 N13 29.97F
$$
CAZ019>021-012000-
SAN JOAQUIN VALLEY

CITY SKY/WX TMP DP RH WIND PRES REMARKS
STOCKTON SUNNY 56 39 53 VRB7 29.99R
MODESTO SUNNY 57 42 57 VRB7 29.99S
MERCED SUNNY N/A N/A N/A CALM 29.98F
LEMOORE MOSUNNY 57 45 64 N8 29.99F
FRESNO PTSUNNY 57 43 59 W5 29.98F
HANFORD MOSUNNY 56 42 59 NW5 29.98F
PORTERVILLE PTSUNNY 55 43 62 NW5 29.98F
BAKERSFIELD PTSUNNY 53 45 74 NW3 29.97F
$$
CAZ011-012-071-012000-
NORTHERN MOUNTAINS

CITY SKY/WX TMP DP RH WIND PRES REMARKS
YREKA SUNNY 43 21 41 N6 30.14F
MOUNT SHASTA SUNNY 42 19 39 NW10 30.09F
ALTURAS SUNNY 36 21 54 CALM 30.09F
$$
CAZ011-012-071-012000-
SIERRA NEVADA MTNS

CITY SKY/WX TMP DP RH WIND PRES REMARKS
BLUE CANYON SUNNY 40 25 55 E9G17 29.98R WCI 34
TAHOE VLY ARPT CLOUDY 36 23 59 NE6G17 29.99S WCI 31
MAMMOTH LAKES CLOUDY 37 16 41 S3 29.95F
$$



Webmaster
US Dept of Commerce
National Oceanic and Atmospheric Administration
National Weather Service
Los Angeles/Oxnard Weather Forecast Office
520 North Elevar Street
Oxnard, CA 93030

Tel: (805) 988-6610

Disclaimer
Information Quality
Credits
Glossary
Organization
Privacy Policy
Freedom of Information Act
About Us
Career Opportunities